FW7198 Weather Reports


Display with metric or nautical units.
time (UTC)temp
F
wind
direction
speed
MPH
gust
MPH
rain 1hr
in
rain 24hr
in
rain mn
in
humidity
%
barometer
mb
20260505211601 81 137 3.0 14.0 0.00 0.00 0.00 40 1014.0
20260505210053 80 234 1.0 8.0 0.00 0.00 0.00 41 1014.2
20260505204552 80 263 2.0 8.0 0.00 0.00 0.00 41 1014.4
20260505203102 80 200 4.0 12.0 0.00 0.00 0.00 41 1014.6
20260505201553 81 123 2.0 9.0 0.00 0.00 0.00 40 1014.8
20260505200110 81 322 3.0 13.0 0.00 0.00 0.00 38 1014.9
20260505194551 82 114 2.0 17.0 0.00 0.00 0.00 39 1015.1
20260505193102 81 245 5.0 14.0 0.00 0.00 0.00 36 1015.5
20260505191604 81 126 4.0 14.0 0.00 0.00 0.00 37 1015.6
20260505190051 82 128 3.0 14.0 0.00 0.00 0.00 37 1015.6
20260505184552 81 243 1.0 7.0 0.00 0.00 0.00 39 1015.7
20260505183050 80 222 2.0 9.0 0.00 0.00 0.00 40 1015.9
20260505181556 81 248 2.0 10.0 0.00 0.00 0.00 39 1016.0
20260505180054 80 107 2.0 12.0 0.00 0.00 0.00 40 1016.3
20260505174557 79 281 3.0 11.0 0.00 0.00 0.00 38 1016.3
20260505173055 80 343 4.0 9.0 0.00 0.00 0.00 39 1016.4
20260505171550 79 81 3.0 12.0 0.00 0.00 0.00 41 1016.3
20260505170053 79 171 4.0 9.0 0.00 0.00 0.00 38 1016.7
20260505164555 79 171 1.0 12.0 0.00 0.00 0.00 44 1017.0
20260505163103 78 269 4.0 10.0 0.00 0.00 0.00 41 1017.0
20260505161551 77 0 2.0 7.0 0.00 0.00 0.00 48 1017.2
20260505153050 73 111 1.0 7.0 0.00 0.00 0.00 57 1017.3
20260505151554 71 306 0.0 6.0 0.00 0.00 0.00 64 1017.4
20260505150104 68 0 0.0 3.0 0.00 0.00 0.00 68 1017.3
20260505130106 53 0 0.0 0.0 0.00 0.00 0.00 91 1016.6
20260505124553 51 0 0.0 0.0 0.00 0.00 0.00 91 1016.7
20260505123050 50 0 0.0 0.0 0.00 0.00 0.00 91 1016.5
20260505121549 49 0 0.0 0.0 0.00 0.00 0.00 90 1016.7
20260505120057 48 0 0.0 0.0 0.00 0.00 0.00 90 1016.5
20260505114551 48 0 0.0 1.0 0.00 0.00 0.00 89 1016.3
20260505113053 48 0 0.0 0.0 0.00 0.00 0.00 88 1016.1
20260505111549 48 0 0.0 0.0 0.00 0.00 0.00 88 1016.0
20260505101552 49 0 0.0 0.0 0.00 0.00 0.00 86 1015.8
20260505100048 49 0 0.0 0.0 0.00 0.00 0.00 86 1015.6
20260505094606 49 0 0.0 0.0 0.00 0.00 0.00 86 1015.6
20260505093057 50 0 0.0 2.0 0.00 0.00 0.00 86 1015.6
20260505091604 50 0 0.0 0.0 0.00 0.00 0.00 86 1015.7
20260505090058 50 0 0.0 3.0 0.00 0.00 0.00 85 1016.0
20260505084557 50 0 0.0 7.0 0.00 0.00 0.00 85 1015.9
20260505083101 51 0 0.0 0.0 0.00 0.00 0.00 84 1015.7
20260505081600 51 0 0.0 2.0 0.00 0.00 0.00 83 1015.8
20260505080054 51 0 0.0 0.0 0.00 0.00 0.00 82 1015.8
20260505074551 52 0 0.0 0.0 0.00 0.00 0.00 81 1015.7
20260505073058 52 0 0.0 0.0 0.00 0.00 0.00 80 1015.7
20260505071555 53 0 0.0 0.0 0.00 0.00 0.00 79 1015.8
20260505070059 54 0 0.0 1.0 0.00 0.00 0.00 78 1015.8
20260505064553 54 0 0.0 0.0 0.00 0.00 0.00 76 1015.7
20260505063052 55 0 0.0 0.0 0.00 0.00 0.00 74 1015.7
20260505061555 56 0 0.0 1.0 0.00 0.00 0.00 74 1015.8
20260505060058 57 0 0.0 1.0 0.00 0.00 0.00 71 1015.9
20260505054556 57 0 0.0 1.0 0.00 0.00 0.00 69 1016.0
20260505053051 58 0 0.0 0.0 0.00 0.00 0.00 68 1016.1
20260505051554 59 0 0.0 0.0 0.00 0.00 0.00 66 1015.8
20260505041550 61 0 0.0 2.0 0.00 0.00 0.00 63 1016.1
20260505040059 61 0 0.0 3.0 0.00 0.00 0.00 62 1016.0
20260505034552 62 0 0.0 0.0 0.00 0.00 0.00 62 1016.1
20260505033051 62 0 0.0 0.0 0.00 0.00 0.00 62 1016.2
20260505031556 63 0 0.0 0.0 0.00 0.00 0.00 61 1016.1
20260505030058 63 0 0.0 0.0 0.00 0.00 0.00 60 1016.0
20260505024553 64 0 0.0 0.0 0.00 0.00 0.00 59 1015.9
20260505023048 64 0 0.0 0.0 0.00 0.00 0.00 58 1015.9
20260505021549 65 0 0.0 0.0 0.00 0.00 0.00 57 1015.7
20260505020052 65 0 0.0 0.0 0.00 0.00 0.00 55 1015.6
20260505014602 66 0 0.0 0.0 0.00 0.00 0.00 54 1015.6
20260505013053 67 0 0.0 0.0 0.00 0.00 0.00 52 1015.6
20260505011553 68 0 0.0 0.0 0.00 0.00 0.00 50 1015.3
20260505010055 70 0 0.0 0.0 0.00 0.00 0.00 48 1015.4
20260505004556 72 0 0.0 0.0 0.00 0.00 0.00 45 1015.5
20260505003054 73 0 0.0 1.0 0.00 0.00 0.00 44 1015.3
20260505001552 74 200 1.0 4.0 0.00 0.00 0.00 41 1015.1
20260505000056 76 94 0.0 4.0 0.00 0.00 0.00 41 1015.1
20260504234549 77 0 0.0 7.0 0.00 0.00 0.00 39 1014.9
20260504233052 78 0 0.0 7.0 0.00 0.00 0.00 39 1014.9
20260504231557 78 185 3.0 10.0 0.00 0.00 0.00 38 1014.9
20260504230054 78 251 2.0 7.0 0.00 0.00 0.00 38 1014.9
20260504224549 78 234 1.0 7.0 0.00 0.00 0.00 39 1014.7
20260504223051 78 128 2.0 8.0 0.00 0.00 0.00 38 1014.9
20260504221552 78 180 1.0 4.0 0.00 0.00 0.00 39 1014.7
20260504220052 79 242 2.0 7.0 0.00 0.00 0.00 38 1014.6
20260504214555 79 0 0.0 6.0 0.00 0.00 0.00 39 1014.7
20260504213046 79 123 0.0 2.0 0.00 0.00 0.00 42 1014.7